GW4827 Weather Reports


time (UTC)temp
C
wind
direction
speed
KPH
gust
KPH
rain 1hr
cm
rain 24hr
cm
rain mn
cm
humidity
%
barometer
mb
20260507161032 15 276 12.9 30.6 0.00 0.61 0.41 45 1007.4
20260507160553 16 266 12.9 14.5 0.00 0.61 0.41 47 1007.4
20260507160011 16 300 8.0 14.5 0.00 0.61 0.41 49 1007.4
20260507155511 15 290 9.7 17.7 0.00 0.61 0.41 52 1007.4
20260507155011 16 253 4.8 9.7 0.00 0.61 0.41 48 1007.6
20260507154511 16 324 1.6 19.3 0.00 0.61 0.41 51 1007.6
20260507154011 16 266 4.8 17.7 0.00 0.61 0.41 51 1007.7
20260507153411 16 291 8.0 12.9 0.00 0.61 0.41 51 1007.6
20260507152911 15 285 3.2 9.7 0.00 0.61 0.41 56 1007.5
20260507152410 16 240 6.4 14.5 0.00 0.61 0.41 59 1007.8
20260507151910 15 249 3.2 19.3 0.00 0.61 0.41 56 1007.5
20260507151410 14 248 9.7 20.9 0.00 0.61 0.41 61 1007.7
20260507150909 14 267 16.1 17.7 0.00 0.61 0.41 62 1007.9
20260507150409 15 205 12.9 17.7 0.00 0.61 0.41 60 1007.9
20260507145909 14 302 4.8 20.9 0.00 0.61 0.41 64 1008.0
20260507145409 15 235 8.0 16.1 0.00 0.61 0.41 60 1007.7
20260507144928 13 276 4.8 16.1 0.00 0.61 0.41 64 1007.8
20260507144408 14 0.0 6.4 0.00 0.61 0.41 63 1007.9
20260507143928 14 294 8.0 16.1 0.00 0.61 0.41 61 1007.8
20260507143308 15 283 3.2 9.7 0.00 0.61 0.41 60 1008.0
20260507142808 14 287 8.0 17.7 0.00 0.61 0.41 61 1008.0
20260507142308 14 271 9.7 16.1 0.00 0.61 0.41 61 1008.0
20260507141807 15 242 3.2 12.9 0.00 0.61 0.41 62 1008.1
20260507141307 13 246 14.5 20.9 0.00 0.61 0.41 63 1008.2
20260507140807 14 286 3.2 4.8 0.00 0.61 0.41 66 1008.1
20260507140327 14 326 1.6 11.3 0.00 0.61 0.41 68 1007.9
20260507135807 14 203 3.2 20.9 0.00 0.61 0.41 67 1008.3
20260507135307 14 227 9.7 9.7 0.00 0.61 0.41 67 1008.3
20260507134806 13 107 3.2 9.7 0.00 0.61 0.41 68 1008.1
20260507134306 13 137 1.6 11.3 0.00 0.61 0.41 75 1008.3
20260507133806 13 330 3.2 11.3 0.00 0.61 0.41 72 1008.0
20260507133206 13 318 3.2 16.1 0.00 0.61 0.41 71 1008.2
20260507132725 13 50 6.4 6.4 0.00 0.61 0.41 79 1008.3
20260507132346 12 350 1.6 16.1 0.00 0.61 0.41 77 1008.3
20260507131705 12 278 6.4 8.0 0.00 0.61 0.41 79 1008.2
20260507131206 12 242 9.7 16.1 0.00 0.61 0.41 82 1008.5
20260507130725 11 318 3.2 14.5 0.00 0.61 0.41 84 1008.5
20260507130204 12 319 6.4 6.4 0.00 0.61 0.41 86 1008.4
20260507125705 11 337 3.2 9.7 0.00 0.61 0.41 88 1008.2
20260507125204 11 331 3.2 11.3 0.00 0.61 0.41 88 1008.5
20260507124704 11 290 1.6 6.4 0.00 0.61 0.41 91 1008.5
20260507124204 10 306 4.8 8.0 0.00 0.61 0.41 91 1008.6
20260507123603 10 0.0 11.3 0.00 0.61 0.41 91 1008.6
20260507123103 10 249 9.7 11.3 0.00 0.61 0.41 94 1008.7
20260507122623 9 271 3.2 8.0 0.00 0.61 0.41 94 1008.5
20260507122123 9 247 9.7 17.7 0.00 0.61 0.41 95 1008.6
20260507121604 9 319 6.4 8.0 0.00 0.61 0.41 96 1008.5
20260507121103 9 281 4.8 9.7 0.00 0.61 0.41 96 1008.4
20260507120602 9 228 3.2 11.3 0.00 0.61 0.41 97 1008.4
20260507115623 9 256 8.0 8.0 0.00 0.61 0.41 98 1008.5
20260507115102 9 359 3.2 6.4 0.00 0.61 0.41 99 1008.2
20260507114602 8 267 8.0 9.7 0.00 0.61 0.41 99 1008.4
20260507114202 8 308 6.4 11.3 0.00 0.61 0.41 99 1008.4
20260507113702 9 259 1.6 4.8 0.00 0.61 0.41 99 1008.5
20260507113101 8 288 4.8 4.8 0.00 0.61 0.41 99 1008.5
20260507112601 8 306 4.8 6.4 0.00 0.61 0.41 99 1008.3
20260507112101 8 313 3.2 6.4 0.00 0.61 0.41 99 1008.2
20260507111601 8 267 3.2 4.8 0.00 0.61 0.41 99 1008.2
20260507111100 8 260 3.2 4.8 0.00 0.61 0.41 99 1008.2
20260507110600 8 257 3.2 4.8 0.00 0.61 0.41 99 1008.4
20260507110059 8 286 3.2 4.8 0.00 0.61 0.41 99 1008.1
20260507105559 8 255 3.2 4.8 0.03 0.61 0.41 99 1007.7
20260507105059 8 281 1.6 4.8 0.03 0.61 0.41 99 1007.9
20260507104559 8 308 3.2 3.2 0.03 0.61 0.41 99 1008.1
20260507104119 8 266 3.2 6.4 0.05 0.61 0.41 99 1008.2
20260507103559 8 279 4.8 4.8 0.05 0.61 0.41 99 1008.4
20260507102958 8 273 3.2 4.8 0.10 0.61 0.41 99 1008.3
20260507102458 8 192 3.2 4.8 0.13 0.61 0.41 99 1008.5
20260507101958 8 259 3.2 6.4 0.15 0.61 0.41 99 1008.1
20260507101458 8 280 1.6 3.2 0.15 0.61 0.41 98 1007.6
20260507100958 8 0.0 3.2 0.18 0.61 0.41 98 1007.7
20260507100537 8 0.0 3.2 0.20 0.61 0.41 98 1007.9
20260507100017 8 263 3.2 4.8 0.23 0.61 0.41 98 1007.7
20260507095457 8 294 1.6 3.2 0.25 0.61 0.41 98 1007.5
20260507094957 8 267 1.6 6.4 0.25 0.61 0.41 98 1007.4
20260507094457 8 0.0 3.2 0.28 0.58 0.38 98 1007.6
20260507093956 8 202 3.2 3.2 0.28 0.58 0.38 98 1007.7
20260507093356 8 0.0 3.2 0.28 0.56 0.36 98 1007.5
20260507092856 8 288 3.2 3.2 0.23 0.51 0.30 97 1007.7
20260507092356 8 263 11.3 12.9 0.20 0.48 0.28 97 1007.4
20260507091855 8 291 8.0 8.0 0.20 0.48 0.28 97 1007.6
20260507091416 8 238 3.2 8.0 0.18 0.46 0.25 97 1007.5
20260507090855 8 250 3.2 8.0 0.20 0.43 0.23 97 1007.5
20260507090355 8 286 6.4 11.3 0.15 0.41 0.20 96 1007.7
20260507085854 8 272 3.2 6.4 0.15 0.38 0.18 96 1007.9
20260507085354 8 294 4.8 8.0 0.13 0.36 0.15 95 1007.8
20260507084854 8 0.0 4.8 0.10 0.33 0.13 95 1007.9
20260507084354 9 296 3.2 4.8 0.10 0.30 0.10 95 1007.7
20260507083854 9 265 4.8 6.4 0.10 0.30 0.10 94 1007.7
20260507083253 9 243 6.4 12.9 0.08 0.28 0.08 94 1007.8
20260507082853 9 279 6.4 9.7 0.08 0.28 0.08 94 1007.7
20260507082353 9 303 1.6 9.7 0.08 0.28 0.08 94 1007.4
20260507082013 9 295 3.2 8.0 0.08 0.28 0.08 93 1007.4
20260507081352 10 286 4.8 12.9 0.08 0.28 0.08 91 1007.3
20260507080912 10 274 9.7 14.5 0.05 0.25 0.05 90 1007.4
20260507080352 10 295 4.8 19.3 0.03 0.23 0.03 89 1007.9
20260507075852 10 259 11.3 24.1 0.03 0.23 0.03 91 1007.6
20260507075353 10 317 3.2 6.4 0.03 0.23 0.03 92 1007.6
20260507074852 10 304 3.2 8.0 0.03 0.23 0.03 91 1007.5
20260507074351 11 295 4.8 6.4 0.00 0.20 0.00 88 1007.4
20260507073851 11 306 3.2 17.7 0.00 0.20 0.00 87 1007.4
20260507073351 11 273 9.7 20.9 0.00 0.20 0.00 84 1007.4
20260507072851 11 317 8.0 12.9 0.00 0.20 0.00 84 1007.3
20260507072410 11 290 8.0 9.7 0.00 0.20 0.00 84 1007.1
20260507071850 11 258 11.3 12.9 0.00 0.20 0.00 84 1006.6
20260507071350 12 310 8.0 14.5 0.00 0.20 0.00 84 1006.6
20260507070850 12 260 3.2 4.8 0.00 0.20 0.00 84 1006.5
20260507070350 12 269 1.6 9.7 0.00 0.20 0.00 84 1006.5
20260507065849 12 354 1.6 12.9 0.00 0.20 0.00 84 1006.4
20260507065349 12 306 6.4 17.7 0.00 0.20 0.00 85 1006.5
20260507064849 12 146 8.0 20.9 0.00 0.20 0.00 84 1006.6
20260507064348 12 204 3.2 8.0 0.00 0.20 0.00 84 1006.5
20260507063848 12 29 9.7 11.3 0.00 0.20 0.00 84 1006.6
20260507063348 12 293 8.0 25.7 0.00 0.20 0.00 84 1007.0
20260507062908 12 283 4.8 11.3 0.00 0.20 0.00 87 1007.0
20260507062348 12 318 6.4 8.0 0.00 0.20 0.00 87 1006.9
20260507061848 12 291 3.2 9.7 0.00 0.20 0.00 87 1006.8
20260507061348 12 286 9.7 11.3 0.00 0.20 0.00 87 1006.5
20260507060847 13 256 4.8 11.3 0.00 0.20 0.00 87 1006.6
20260507060347 13 244 4.8 8.0 0.00 0.20 0.00 87 1006.7
20260507055847 13 337 3.2 6.4 0.00 0.20 0.00 88 1006.7
20260507055347 13 278 3.2 8.0 0.00 0.20 0.00 87 1006.8
20260507054906 13 281 4.8 9.7 0.00 0.20 0.00 87 1007.0
20260507054407 13 280 3.2 12.9 0.00 0.20 0.00 87 1006.8
20260507053846 13 258 14.5 22.5 0.00 0.20 0.00 86 1007.1
20260507053346 13 331 6.4 9.7 0.00 0.20 0.00 88 1007.2
20260507052846 13 276 8.0 9.7 0.00 0.20 0.00 87 1007.0
20260507052345 13 261 8.0 11.3 0.00 0.20 0.00 87 1007.1
20260507051905 13 291 9.7 16.1 0.00 0.20 0.00 87 1007.1
20260507051345 13 273 12.9 17.7 0.00 0.20 0.00 88 1006.9
20260507050845 14 68 9.7 12.9 0.00 0.20 0.00 89 1006.7
20260507050344 14 263 11.3 17.7 0.00 0.20 0.00 90 1006.8
20260507045844 14 266 3.2 8.0 0.00 0.20 0.00 92 1006.6
20260507045344 14 265 6.4 8.0 0.00 0.20 0.00 92 1006.9
20260507044844 15 309 4.8 9.7 0.00 0.20 0.00 92 1007.0
20260507044344 15 275 4.8 16.1 0.00 0.20 0.00 93 1006.9
20260507043843 15 274 6.4 12.9 0.00 0.20 0.00 93 1006.7
20260507043403 15 271 6.4 16.1 0.00 0.20 0.00 95 1006.7
20260507042743 15 292 8.0 12.9 0.00 0.20 0.00 96 1006.5
20260507042343 15 277 6.4 6.4 0.00 0.20 0.00 96 1006.4
20260507041843 15 267 3.2 9.7 0.00 0.20 0.00 97 1006.5
20260507041343 15 263 4.8 9.7 0.00 0.20 0.00 97 1006.7
20260507040842 15 256 3.2 8.0 0.00 0.20 0.00 97 1006.7
20260507040342 15 255 6.4 6.4 0.00 0.20 0.00 98 1006.8
20260507035841 15 268 6.4 9.7 0.00 0.20 0.20 98 1006.8
20260507035402 15 262 11.3 20.9 0.00 0.20 0.20 98 1007.0
20260507034901 15 273 6.4 9.7 0.00 0.20 0.20 98 1006.9
20260507034421 15 183 3.2 9.7 0.00 0.20 0.20 98 1007.0
20260507033841 15 192 4.8 14.5 0.00 0.20 0.20 98 1006.8
20260507033341 15 186 3.2 12.9 0.00 0.20 0.20 98 1006.6
20260507032900 15 256 6.4 14.5 0.00 0.20 0.20 98 1006.8
20260507032300 15 262 3.2 19.3 0.00 0.20 0.20 98 1006.6
20260507031740 15 200 1.6 17.7 0.00 0.20 0.20 97 1006.6
20260507031240 15 188 4.8 16.1 0.00 0.20 0.20 97 1006.6
20260507030740 15 235 6.4 17.7 0.00 0.20 0.20 97 1006.6
20260507030239 15 245 9.7 17.7 0.00 0.20 0.20 97 1006.4
20260507025819 15 293 8.0 19.3 0.00 0.20 0.20 97 1006.4
20260507025239 15 253 11.3 16.1 0.00 0.20 0.20 97 1006.3
20260507024739 15 237 4.8 12.9 0.00 0.20 0.20 97 1006.2
20260507024259 15 274 17.7 17.7 0.00 0.20 0.20 97 1006.5
20260507023738 15 216 11.3 12.9 0.00 0.20 0.20 97 1006.2
20260507023238 15 195 4.8 19.3 0.00 0.20 0.20 97 1006.5
20260507022818 15 233 8.0 25.7 0.00 0.20 0.20 98 1006.5
20260507022138 15 217 14.5 20.9 0.00 0.20 0.20 98 1006.2
20260507021718 14 254 3.2 20.9 0.00 0.20 0.20 98 1006.2
20260507021138 14 203 6.4 16.1 0.00 0.20 0.20 98 1006.0
20260507020657 14 0.0 14.5 0.00 0.20 0.20 98 1006.0
20260507020137 14 228 8.0 14.5 0.00 0.20 0.20 98 1006.4
20260507015636 14 274 8.0 17.7 0.00 0.20 0.20 98 1006.5
20260507015136 14 218 17.7 22.5 0.00 0.20 0.20 98 1006.4
20260507014657 14 200 4.8 12.9 0.00 0.20 0.20 98 1006.2
20260507014136 14 240 8.0 9.7 0.00 0.20 0.20 98 1006.5
20260507013636 14 183 4.8 17.7 0.00 0.20 0.20 98 1006.5
20260507013135 14 217 1.6 11.3 0.00 0.20 0.20 98 1006.6
20260507012635 14 188 3.2 14.5 0.00 0.20 0.20 98 1006.7
20260507012035 14 185 6.4 14.5 0.00 0.20 0.20 98 1006.6
20260507011536 14 191 12.9 17.7 0.00 0.20 0.20 98 1006.9
20260507011034 14 216 6.4 9.7 0.00 0.20 0.20 98 1006.9
20260507010534 14 214 6.4 11.3 0.00 0.20 0.20 98 1006.7
20260507010034 14 208 6.4 17.7 0.00 0.20 0.20 98 1006.8
20260507005555 14 184 9.7 24.1 0.00 0.20 0.20 98 1006.9
20260507005054 14 237 9.7 9.7 0.00 0.20 0.20 98 1006.9
20260507004534 14 194 9.7 20.9 0.00 0.20 0.20 98 1007.0
20260507004033 14 239 12.9 17.7 0.00 0.20 0.20 98 1006.9
20260507003534 14 150 4.8 9.7 0.03 0.20 0.20 98 1006.8
20260507003033 14 157 3.2 11.3 0.03 0.20 0.20 98 1006.7
20260507002432 14 217 12.9 20.9 0.03 0.20 0.20 98 1006.6
20260507001932 14 159 8.0 14.5 0.05 0.20 0.20 98 1006.7
20260507001432 13 142 8.0 14.5 0.05 0.20 0.20 98 1006.6
20260507000932 14 166 6.4 20.9 0.05 0.20 0.20 98 1006.6
20260507000432 14 208 6.4 17.7 0.05 0.20 0.20 98 1006.5
20260507000011 14 228 9.7 11.3 0.05 0.20 0.20 98 1006.5
20260506235431 14 233 12.9 27.4 0.05 0.20 0.20 98 1006.3
20260506234932 14 216 12.9 27.4 0.05 0.20 0.20 98 1006.5
20260506234431 14 200 3.2 9.7 0.05 0.20 0.20 98 1006.5
20260506233931 14 195 11.3 19.3 0.05 0.18 0.18 98 1006.4
20260506233430 14 0.0 12.9 0.03 0.18 0.18 98 1006.2
20260506232930 14 210 3.2 14.5 0.03 0.18 0.18 98 1006.3
20260506232330 14 216 4.8 16.1 0.03 0.18 0.18 98 1006.4
20260506231830 14 189 9.7 14.5 0.03 0.15 0.15 97 1006.1
20260506231350 15 193 6.4 16.1 0.03 0.15 0.15 97 1006.5
20260506230829 15 247 4.8 12.9 0.00 0.15 0.15 97 1006.5
20260506230329 15 228 4.8 11.3 0.00 0.15 0.15 97 1006.4
20260506225829 15 181 3.2 14.5 0.00 0.15 0.15 97 1006.2
20260506225329 15 150 11.3 12.9 0.00 0.15 0.15 96 1006.5
20260506224848 15 251 6.4 9.7 0.00 0.15 0.15 97 1006.4
20260506224328 15 236 6.4 9.7 0.00 0.15 0.15 97 1006.4
20260506223829 15 278 6.4 9.7 0.03 0.15 0.15 97 1006.4
20260506223327 15 161 4.8 11.3 0.03 0.15 0.15 97 1006.5
20260506222828 15 163 3.2 19.3 0.05 0.15 0.15 97 1006.6
20260506222227 15 221 16.1 24.1 0.05 0.15 0.15 97 1006.6
20260506221727 15 192 3.2 24.1 0.05 0.15 0.15 97 1006.6
20260506221227 15 225 11.3 14.5 0.05 0.15 0.15 97 1006.8
20260506220727 15 207 8.0 11.3 0.05 0.15 0.15 97 1006.8
20260506220227 15 183 4.8 17.7 0.05 0.15 0.15 97 1006.8
20260506215727 15 194 12.9 16.1 0.05 0.15 0.15 97 1006.7
20260506215226 15 145 14.5 20.9 0.05 0.15 0.15 97 1006.9
20260506214726 15 228 14.5 17.7 0.05 0.13 0.13 97 1006.8
20260506214226 15 187 9.7 14.5 0.05 0.13 0.13 96 1007.0
20260506213725 15 198 6.4 33.8 0.05 0.13 0.13 96 1007.1
20260506213225 15 183 4.8 9.7 0.03 0.10 0.10 95 1007.1
20260506212725 15 0.0 22.5 0.03 0.10 0.10 94 1007.2
20260506212125 15 192 14.5 25.7 0.00 0.10 0.10 93 1007.2
20260506211725 15 194 14.5 19.3 0.00 0.08 0.08 93 1007.1
20260506211225 16 166 9.7 24.1 0.00 0.08 0.08 92 1007.3
20260506210724 16 205 6.4 17.7 0.00 0.08 0.08 92 1007.1
20260506210224 15 205 12.9 20.9 0.00 0.08 0.08 92 1007.1
20260506205724 16 141 9.7 29.0 0.00 0.08 0.08 91 1007.3
20260506205224 15 153 16.1 20.9 0.03 0.08 0.08 91 1007.2
20260506204743 15 185 11.3 14.5 0.03 0.08 0.08 92 1007.3
20260506204223 15 207 6.4 17.7 0.03 0.08 0.08 92 1007.4
20260506203723 15 225 11.3 17.7 0.05 0.08 0.08 91 1007.4
20260506203303 16 157 6.4 16.1 0.05 0.08 0.08 91 1007.7
20260506202723 16 256 6.4 32.2 0.05 0.08 0.08 90 1007.6
20260506202243 16 205 1.6 11.3 0.05 0.08 0.08 91 1007.7
20260506201722 16 155 6.4 9.7 0.05 0.08 0.08 91 1007.5
20260506201223 16 222 8.0 11.3 0.08 0.08 0.08 91 1007.3
20260506200722 16 182 8.0 22.5 0.08 0.08 0.08 91 1007.5
20260506200222 16 212 3.2 17.7 0.08 0.08 0.08 90 1007.4
20260506195722 16 227 8.0 12.9 0.08 0.08 0.08 90 1007.3
20260506195242 16 223 4.8 11.3 0.05 0.05 0.05 90 1007.3
20260506194722 16 156 6.4 9.7 0.05 0.05 0.05 88 1007.3
20260506194221 17 195 6.4 17.7 0.05 0.05 0.05 86 1007.3
20260506193801 17 175 3.2 9.7 0.05 0.05 0.05 85 1007.7
20260506193221 17 193 1.6 14.5 0.05 0.05 0.05 84 1007.8
20260506192721 17 0.0 12.9 0.03 0.03 0.03 83 1007.6
20260506192221 17 212 9.7 12.9 0.03 0.03 0.03 81 1007.7
20260506191721 18 163 8.0 20.9 0.03 0.03 0.03 80 1007.6
20260506191301 18 194 8.0 17.7 0.00 0.00 0.00 79 1007.4
20260506190720 18 176 9.7 14.5 0.00 0.00 0.00 75 1007.5
20260506190240 18 264 9.7 16.1 0.00 0.00 0.00 74 1007.3
20260506185720 19 187 12.9 24.1 0.00 0.00 0.00 71 1007.4
20260506185220 20 206 11.3 32.2 0.00 0.00 0.00 68 1007.6
20260506184720 20 169 19.3 25.7 0.00 0.00 0.00 67 1007.5
20260506184220 20 238 6.4 22.5 0.00 0.00 0.00 68 1007.6
20260506183719 20 241 9.7 11.3 0.00 0.00 0.00 68 1007.7
20260506183220 20 220 8.0 14.5 0.00 0.00 0.00 67 1007.5
20260506182719 20 191 6.4 20.9 0.00 0.00 0.00 65 1007.6
20260506182219 20 198 9.7 22.5 0.00 0.00 0.00 64 1007.8
20260506181738 21 166 14.5 24.1 0.00 0.00 0.00 63 1007.7
20260506181218 21 240 9.7 17.7 0.00 0.00 0.00 62 1007.7
20260506180717 21 201 6.4 19.3 0.00 0.00 0.00 61 1007.9
20260506180218 21 186 8.0 35.4 0.00 0.00 0.00 61 1007.7
20260506175717 21 140 20.9 33.8 0.00 0.00 0.00 60 1007.7
20260506175237 22 172 20.9 32.2 0.00 0.00 0.00 59 1008.2
20260506174717 22 132 9.7 19.3 0.00 0.00 0.00 58 1008.1
20260506174217 22 179 3.2 33.8 0.00 0.00 0.00 58 1008.0
20260506173716 22 167 19.3 24.1 0.00 0.00 0.00 58 1008.3
20260506173236 22 203 8.0 27.4 0.00 0.00 0.00 58 1008.0
20260506172716 22 217 6.4 20.9 0.00 0.00 0.00 57 1008.1
20260506172216 22 202 6.4 29.0 0.00 0.00 0.00 57 1008.2
20260506171716 22 250 11.3 17.7 0.00 0.00 0.00 60 1008.3
20260506171216 22 148 14.5 30.6 0.00 0.00 0.00 59 1008.3
20260506170715 22 187 8.0 25.7 0.00 0.00 0.00 59 1007.9
20260506170215 22 220 8.0 19.3 0.00 0.00 0.00 59 1007.8
20260506165715 22 142 12.9 30.6 0.00 0.00 0.00 61 1008.3
20260506165215 22 203 11.3 24.1 0.00 0.00 0.00 61 1008.3
20260506164755 22 242 17.7 24.1 0.00 0.00 0.00 61 1008.2
20260506164215 21 209 14.5 27.4 0.00 0.00 0.00 62 1008.5
20260506163714 21 167 6.4 29.0 0.00 0.00 0.00 62 1008.4
20260506163214 22 129 9.7 20.9 0.00 0.00 0.00 63 1008.4
20260506162714 21 148 16.1 25.7 0.00 0.00 0.00 63 1008.4
20260506162214 21 182 4.8 32.2 0.00 0.00 0.00 63 1008.5
20260506161713 21 144 14.5 17.7 0.00 0.00 0.00 63 1008.9